Location: Peterborough
(44.3091°N, 78.3197°W)
Time: 17:39:45
(UTC-04:00)

Transit 2A - Pass Details

Date: 30 March 2023
Orbit: 591 x 964 km, 66.7° (Epoch: 04 June)

Event Time Altitude Azimuth Distance (km) Brightness Sun altitude
Rises 08:03:42 0° 289° (WNW) 3,425 8.7 10.8°
Reaches altitude 10° 08:08:24 10° 324° (NW) 2,582 8.4 11.7°
Maximum altitude 08:10:07 11° 340° (NNW) 2,526 8.5 12.0°
Drops below altitude 10° 08:11:53 10° 357° (N) 2,638 8.7 12.3°
Sets 08:16:53 0° 31° (NNE) 3,638 9.8 13.2°
